Weather in Aleynikovo

Russia / Belgorod Oblast     50°28′07″N   38°49′58″E
temp.,
°C
wind,
m/s
gust,
m/s
humid.,
%
clouds,
%
prec.,
mm/h
press.,
hPa
HPBL,
m
7 may, fri
fri700:00+13wsw3672100 0.0 1011188
03:00+10nw4796100 1.1 1012370
06:00+8nnw5894100 4.1 1013422
09:00+11n577216 4.2 1015964
12:00+15nnw445222 0.0 10161699
15:00+16nw334124 0.0 10162144
18:00+16w22479 0.0 10161648
21:00+11sse2258100 0.0 101612
8 may, sat
sat800:00+9se6137560 0.0 1016289
03:00+8sse51379100 0.0 1015293
06:00+9sse61577100 0.0 1013419
09:00+14s81270100 0.0 1011686
12:00+13s71380100 0.4 1010779
15:00+12wsw3789100 0.8 1010301
18:00+11w61195100 3.9 1011650
21:00+9w51092100 9.4 1013630
9 may, sun
sun900:00+6nw51090100 0.9 1015667
03:00+5nw41090100 1.5 1016703
06:00+5nw41089100 0.0 1017707
09:00+7n61075100 0.0 1018797
12:00+10n71056100 0.0 10181389
15:00+12n71050100 0.0 10192115
18:00+10n81161100 0.2 10211054
21:00+7nnw5136793 0.2 1023466
10 may, mon
mon1000:00+5nnw512764 0.0 1025362
03:00+4nnw412780 0.0 1027298
06:00+5n514768 0.0 1027543
09:00+10nne812615 0.0 10281153
12:00+13nne10134955 0.0 10271488
15:00+14nne1012485 0.0 10261691
18:00+13nne8125996 0.0 10261420
21:00+11nne71459100 0.0 1026987
11 may, tue
tue1100:00+10nne7156698 0.0 1026665
03:00+8nne7167230 0.0 1025539
06:00+9nne71573100 0.0 1025497
09:00+9ne71583100 0.6 1025575
12:00+13ne8137496 0.4 1024717
15:00+16ene8116692 0.4 10231244
18:00+16ne91576100 0.2 10201032
21:00+11e41396100 4.6 1022846